This is the latest recevied weather packets stored in our database for station/object KG7MRB. If no packets are shown the sender has not sent any weather packets the latest 10 day(s).
| Time | Temp. | Humidity | Pressure | Rain* | Wind** | Luminosity | Snow |
|---|---|---|---|---|---|---|---|
| 1778174335 | 13.33° C | 81% | 1038.4 hPa | 0 mm | - | 143 W/m² | - |
| 1778174032 | 13.33° C | 82% | 1038.4 hPa | 0 mm | - | 167 W/m² | - |
| 1778173730 | 13.33° C | 82% | 1038.6 hPa | 0 mm | - | 195 W/m² | - |
| 1778173426 | 13.33° C | 82% | 1038.4 hPa | 0 mm | - | 228 W/m² | - |
| 1778173122 | 13.33° C | 81% | 1038.4 hPa | 0 mm | - | 274 W/m² | - |
| 1778172818 | 13.33° C | 81% | 1038.2 hPa | 0 mm | - | 276 W/m² | - |
| 1778172514 | 13.89° C | 81% | 1038.4 hPa | 0 mm | - | 259 W/m² | - |
| 1778172211 | 13.33° C | 82% | 1038.5 hPa | 0 mm | - | 278 W/m² | - |
| 1778171908 | 13.33° C | 83% | 1038.4 hPa | 0 mm | - | 250 W/m² | - |
| 1778171606 | 12.78° C | 85% | 1038.5 hPa | 0 mm | - | 262 W/m² | - |
| 1778171302 | 12.78° C | 84% | 1038.2 hPa | 0 mm | - | 231 W/m² | - |
| 1778170998 | 12.78° C | 85% | 1038.5 hPa | 0 mm | - | 204 W/m² | - |
| 1778170695 | 12.22° C | 86% | 1038.6 hPa | 0 mm | - | 201 W/m² | - |
| 1778170392 | 12.22° C | 86% | 1038.7 hPa | 0 mm | - | 174 W/m² | - |
| 1778170088 | 12.22° C | 86% | 1038.7 hPa | 0 mm | - | 150 W/m² | - |
| 1778169784 | 12.22° C | 86% | 1038.9 hPa | 0 mm | - | 136 W/m² | - |
| 1778169480 | 12.22° C | 87% | 1038.6 hPa | 0 mm | - | 115 W/m² | - |
| 1778169176 | 12.22° C | 88% | 1038.9 hPa | 0 mm | - | 111 W/m² | - |
| 1778168873 | 12.22° C | 88% | 1038.7 hPa | 0 mm | - | 107 W/m² | - |
| 1778168570 | 12.22° C | 89% | 1038.9 hPa | 0 mm | - | 125 W/m² | - |
| 1778168267 | 12.22° C | 89% | 1038.9 hPa | 0 mm | - | 113 W/m² | - |
| 1778167963 | 11.67° C | 90% | 1038.8 hPa | 0 mm | - | 120 W/m² | - |
| 1778167660 | 11.67° C | 90% | 1038.9 hPa | 0 mm | - | 119 W/m² | - |
| 1778167356 | 12.22° C | 90% | 1038.8 hPa | 0 mm | - | 113 W/m² | - |
| 1778167052 | 11.67° C | 90% | 1038.9 hPa | 0 mm | - | 102 W/m² | - |
* Rain latest hour (hover to see other rain measurements)
** Current wind speed in m/s (hover to see current wind gust speed)